Regional Weather Roundup
Issued by NWS

Home | Current Version | Previous Version | Text Only | Print | Product List | Glossary On
Versions: 1 2 3 4 5 6 7 8 9 10 11 12 13 14 15 16 17 18 19 20 21 22 23 24 25 26 27 28 29 30 31 32 33 34 35 36 37 38 39 40 41 42 43 44 45 46 47 48 49 50
000
ASUS43 KMKX 300300
RWRWI

WISCONSIN REGIONAL WEATHER ROUNDUP
NATIONAL WEATHER SERVICE MILWAUKEE/SULLIVAN WI
1000 PM CDT FRI JUL 29 2016

NOTE: "FAIR" INDICATES FEW OR NO CLOUDS BELOW 12,000 FEET WITH NO
SIGNIFICANT WEATHER AND/OR OBSTRUCTIONS TO VISIBILITY.

WIZ001-002-006>008-014>016-023>028-300400-
NORTHWEST WISCONSIN

CITY           SKY/WX    TMP DP  RH WIND       PRES   REMARKS
SUPERIOR ARPT  CLEAR     60  58  92 NE5       30.06R
ASHLAND        CLEAR     59  55  87 N5        30.08S
HAYWARD        CLEAR     60  54  80 CALM      30.07R
SIREN          NOT AVBL
CUMBERLAND     CLEAR     64  55  72 CALM      30.06R
RICE LAKE      MOCLDY    62  58  86 CALM      30.06R
CHETEK         CLOUDY    68  62  81 CALM      30.05R
LADYSMITH      CLEAR     65  60  82 N6        30.08R
EAU CLAIRE     NOT AVBL
MENOMONIE      PTCLDY    68  58  69 CALM      30.04R
NEW RICHMOND   CLEAR     63  57  82 CALM      30.05R
OSCEOLA        CLEAR     63  60  90 CALM      30.07R
$$

WIZ003>005-009-010-017-018-300400-
NORTH CENTRAL WISCONSIN

CITY           SKY/WX    TMP DP  RH WIND       PRES   REMARKS
MANITOWISH WTR MOCLDY    64  58  80 NE7       30.08R
ARBOR VITAE    CLOUDY    69  62  77 CALM      30.08R
WOODRUFF       CLOUDY    69  62  77 CALM      30.08R
RHINELANDER    CLEAR     64  58  80 CALM      30.09R
EAGLE RIVER    MOCLDY    65  57  74 CALM      30.08R
LAND O LAKES   MOCLDY    66  57  72 NE3       30.10R
PHILLIPS       CLOUDY    66  60  79 CALM      30.07R
TOMAHAWK       CLEAR     61  58  91 CALM      30.09R
MEDFORD        CLEAR     64  62  93 E3        30.07R
MERRILL        CLEAR     62  60  94 CALM      30.08R
$$

WIZ029-030-035-036-043>047-300400-
CENTRAL WISCONSIN

CITY           SKY/WX    TMP DP  RH WIND       PRES   REMARKS
WAUSAU         PTCLDY    65  60  84 CALM      30.05R
MOSINEE        PTCLDY    64  59  82 NE3       30.07R
MARSHFIELD     MOCLDY    65  61  87 E3        30.05R
STEVENS POINT  PTCLDY    64  60  88 NE5       30.06R
WAUPACA        CLOUDY    70  60  72 CALM      30.04S
WAUTOMA        CLOUDY    68  63  84 NE5       30.04R
WISC RAPIDS    PTCLDY    67  61  81 E5        30.05R
CAMP DOUGLAS   NOT AVBL
$$

WIZ011>013-019>022-031-037>040-048>050-300400-
NORTHEAST WISCONSIN

CITY           SKY/WX    TMP DP  RH WIND       PRES   REMARKS
ANTIGO         CLEAR     59  58  95 CALM      30.09R
SHAWANO        CLOUDY    70  59  66 E3        30.06R
OCONTO         CLOUDY    67  59  76 NE3       30.04S
STURGEON BAY   CLEAR     67  57  70 NE3       30.05S
GREEN BAY      CLOUDY    68  57  68 E7        30.03S
MANITOWOC      NOT AVBL
APPLETON       MOCLDY    70  50  49 E8        30.02S
CLINTONVILLE   CLOUDY    66  57  72 NE3       30.05R
OSHKOSH        CLOUDY    70  55  59 NE8       30.02S
$$

WIZ032>034-041-042-053>061-300400-
SOUTHWEST WISCONSIN

CITY           SKY/WX    TMP DP  RH WIND       PRES   REMARKS
LA CROSSE      CLEAR     69  65  86 N3        30.01S
SPARTA         MOCLDY    65  64  96 CALM      30.04R
VIROQUA        CLOUDY    66  65  94 NE5       30.03F
BOSCOBEL       CLEAR     67  66  97 CALM      30.00F FOG
PRAIRIE DU CHI   N/A     67  64  88 CALM      30.00S
PLATTEVILLE    CLOUDY    68  68  99 NE5       30.00S
$$

WIZ056-057-062-063-064-067-068-300400-
SOUTH CENTRAL WISCONSIN

CITY           SKY/WX    TMP DP  RH WIND       PRES   REMARKS
REEDSBURG      CLOUDY    68  66  92 E5        30.02S
BARABOO/DELLS  CLOUDY    67  64  91 NE3       30.02S
LONE ROCK      NOT AVBL
MINERAL POINT  MOCLDY    70  68  94 NE6       30.01S
MADISON        CLOUDY    68  62  81 NE3       30.01R
MIDDLETON      CLOUDY    69  64  82 NE6       30.02R
WATERTOWN      MOCLDY    67  61  81 NE8       30.00F
MONROE         CLOUDY    68  64  88 NE10      30.00R
JANESVILLE     NOT AVBL
$$

WIZ051-052-058>065-066-070>072-300400-
SOUTHEAST WISCONSIN

CITY           SKY/WX    TMP DP  RH WIND       PRES   REMARKS
MILWAUKEE      PTCLDY    69  65  86 N10       29.99S
WAUKESHA       PTCLDY    64  59  82 NE5       30.02R
MILWAUKEE/TIMM CLOUDY    68  61  77 N7        30.01S
RACINE         CLOUDY    68  65  90 N9        30.00S
BURLINGTON     PTCLDY    68  63  85 NE6       29.99R
KENOSHA        CLOUDY    69  66  90 NE7       29.98S
FOND DU LAC    CLOUDY    70  57  63 NE8       30.02F
SHEBOYGAN      LGT RAIN  67  59  75 NE14      30.02S
WEST BEND      CLOUDY    66  59  77 NE7       30.02S
JUNEAU         PTCLDY    66  61  84 N5        30.03S
$$

LSZ147-162-300400-
LAKE SUPERIOR

STATION/POSITION TIME  TEMP    WIND        PRES    WAVE
                       AIR SEA DIR/SP/G            HT/PER
                 (UTC) (F)     (DEG/KT/KT) (MB)    (FT/S)
W MID LAKE BUOY  0150   64 62  110/  8/ 10 1017.7R   0
DEVILS ISLAND    0200   65     130/  7/  9 1018.1S
PORT WING        0240   64     130/  3/  6 1017.9S
SAXON HARBOR     0200   64      CALM  /  2 1017.6
$$

LMZ867-665-643>646-300400-
LAKE MICHIGAN

STATION/POSITION TIME  TEMP    WIND        PRES    WAVE
                       AIR SEA DIR/SP/G            HT/PER
                 (UTC) (F)     (DEG/KT/KT) (MB)    (FT/S)
CHAMBERS ISLAND  0200   71      50/  6/  9 1017.3S
S GREEN BAY BUOY 0200   70 70   70/ 12/ 14 1016.5S
N MID LAKE BUOY  0150   71 70   50/ 10/ 12 1016.6R   1/ 3
NORTHPORT PIER   0200   70      20/  4/  5 1017.3R
SISTER BAY       0206   67        CALM       N/A
ALGOMA LAKESHORE 0243           50/  8/ 11   N/A
KEWAUNEE LAKESHO 0200   66      20/  3/  6 1016.5R
SHEBOYGAN LAKESH 0200   66      30/  8/  9 1016.5R
PORT WASHINGTON  0240   70      30/  6/ 11 1016.9R
ATWATER BUOY     0200   63 62  360/ 10/ 12 1017.3R
MILWAUKEE LAKESH 0210   68      10/ 11/ 13   N/A
S MID LAKE BUOY  0150   73 74   70/ 12/ 14 1014.0F   3/ 4
KENOSHA   LAKESH 0200   71      60/ 12/ 17 1014.6R
$$

TC  - TEMPERATURE IN CELSIUS
VSB - VISIBILITY IN STATUTE MILES
WCI - WIND CHILL INDEX
HX  - HEAT INDEX




USA.gov is the U.S. government's official web portal to all federal, state and local government web resources and services.